Change the Weather History Date:

Friday, March 29, 2013

  Actual Average Record
Temperature  
Mean Temperature 65 °F -  
Max Temperature 82 °F 70 °F 89 °F (1953)
Min Temperature 48 °F 39 °F 25 °F (1972)
Growing Degree Days 15 (Base 50)    
Moisture  
Dew Point 12 °F    
Average Humidity 12    
Maximum Humidity 19    
Minimum Humidity 8    
Precipitation  
Precipitation 0.00 in - - ()
Sea Level Pressure  
Sea Level Pressure 29.98 in    
Wind  
Wind Speed 5 mph (NW)    
Max Wind Speed 15 mph    
Max Gust Speed 18 mph    
Visibility 10 miles    
Events      
Averages and records for this station are not official NWS values.
T = Trace of Precipitation, MM = Missing Value Source: NWS Daily Summary

Daily Weather History Graph

Daily Weather History Graph

Search for Another Location

Airport or City:

Trip Planner

Search our weather history database for the weather conditions in past years. The results will help you decide how hot, cold, wet, or windy it might be!

Date:

Astronomy

Mar. 29, 2013 Rise Set
Actual Time 6:09 AM MST 6:36 PM MST
Civil Twilight 5:45 AM MST 7:01 PM MST
Nautical Twilight 5:16 AM MST 7:30 PM MST
Astronomical Twilight 4:46 AM MST 8:00 PM MST
Moon 9:29 PM MST (3/29) 7:30 AM MST (3/29)
Length of Visible Light 13h 16m
Length of Day
12h 26m
Waning Gibbous, 93% of the Moon is Illuminated
Mar 29
Waning Gibbous
Apr 2
Last Quarter
Apr 10
New
Apr 18
First Quarter
Apr 25
Full

Hourly Weather History & Observations

Time (MST) Temp. Dew Point Humidity Pressure Visibility Wind Dir Wind Speed Gust Speed Precip Events Conditions
12:51 AM 60.1 °F 8.1 °F 13% 29.96 in 10.0 mi North 4.6 mph - N/A   Clear
1:51 AM 55.9 °F 8.1 °F 15% 29.97 in 10.0 mi Calm Calm - N/A   Clear
2:51 AM 57.0 °F 9.0 °F 15% 29.97 in 10.0 mi South 4.6 mph - N/A   Clear
3:51 AM 54.0 °F 9.0 °F 17% 29.98 in 10.0 mi Calm Calm - N/A   Clear
4:51 AM 51.1 °F 8.1 °F 18% 30.00 in 10.0 mi ENE 4.6 mph - N/A   Clear
5:51 AM 48.0 °F 7.0 °F 19% 30.03 in 10.0 mi SE 3.5 mph - N/A   Clear
6:51 AM 50.0 °F 8.1 °F 18% 30.06 in 10.0 mi Calm Calm - N/A   Clear
7:51 AM 57.0 °F 12.0 °F 17% 30.06 in 10.0 mi ESE 3.5 mph - N/A   Clear
8:51 AM 64.0 °F 12.0 °F 13% 30.06 in 10.0 mi Calm Calm - N/A   Clear
9:51 AM 68.0 °F 10.9 °F 11% 30.05 in 10.0 mi Calm Calm - N/A   Clear
10:51 AM 75.0 °F 10.9 °F 9% 30.03 in 10.0 mi Calm Calm - N/A   Clear
11:51 AM 79.0 °F 14.0 °F 9% 30.01 in 10.0 mi Calm Calm - N/A   Clear
12:51 PM 81.0 °F 17.1 °F 9% 29.97 in 10.0 mi Variable 5.8 mph - N/A   Clear
1:51 PM 82.9 °F 16.0 °F 8% 29.94 in 10.0 mi WNW 12.7 mph - N/A   Clear
2:51 PM 82.0 °F 15.1 °F 8% 29.91 in 10.0 mi Variable 6.9 mph - N/A   Clear
3:51 PM 82.9 °F 15.1 °F 8% 29.90 in 10.0 mi West 5.8 mph 16.1 mph N/A   Clear
4:51 PM 82.9 °F 15.1 °F 8% 29.90 in 10.0 mi NW 15.0 mph 18.4 mph N/A   Clear
5:51 PM 81.0 °F 14.0 °F 8% 29.91 in 10.0 mi NW 13.8 mph - N/A   Clear
6:51 PM 77.0 °F 17.1 °F 10% 29.92 in 10.0 mi NW 13.8 mph - N/A   Clear
7:51 PM 72.0 °F 14.0 °F 11% 29.94 in 10.0 mi NW 9.2 mph - N/A   Clear
8:51 PM 66.9 °F 12.0 °F 12% 29.96 in 10.0 mi NW 10.4 mph - N/A   Clear
9:51 PM 64.0 °F 10.9 °F 13% 29.98 in 10.0 mi NW 11.5 mph - N/A   Clear
10:51 PM 66.0 °F 10.0 °F 11% 29.97 in 10.0 mi WNW 3.5 mph - N/A   Clear
11:51 PM 60.1 °F 10.0 °F 14% 29.97 in 10.0 mi NW 11.5 mph - N/A   Clear